Location: Unspecified
(51.5147°N, 7.4673°E)
Time: 12:28:47
(UTC+01:00)

A-11 Canister half - Pass Details

Date: 19 February 2026
Orbit: 1513 x 1686 km, 47.2° (Epoch: 17 March)

Event Time Altitude Azimuth Distance (km) Brightness Sun altitude
Rises 03:39:49 0° 287° (WNW) 4,877 - -36.4°
Reaches altitude 10° 03:43:25 10° 278° (W) 3,864 - -35.9°
Maximum altitude 03:51:37 32° 221° (SW) 2,492 - -34.8°
Exits shadow 03:58:34 13° 167° (SSE) 3,481 10.7 -33.8°
Drops below altitude 10° 03:59:34 10° 163° (SSE) 3,735 10.9 -33.7°
Sets 04:03:00 0° 154° (SSE) 4,694 11.6 -33.2°
